Погода в Кадырово

Россия / Республика Татарстан     55°27′01″N   52°06′33″E
темп.,
°C
ветер,
м/с
пор.,
м/с
влажн.,
%
обл.,
%
осадки,
мм/ч
давл.,
гПа
погр.,
м
25 июня, сб
сб2500:00+13с228411 0.0 101019
03:00+12ссз22813 0.0 101010
06:00+16ссз25780 0.0 1010192
09:00+21сз57680 0.0 1010675
12:00+22сз68670 0.1 10101335
15:00+22ссз710700 0.6 10101369
18:00+19ссз49770 0.1 1010399
21:00+14ссз34860 0.3 101150
26 июня, вс
вс2600:00+13сз22809 0.0 101219
03:00+11ссз37901 0.0 1013129
06:00+13с511820 0.0 1014600
09:00+15с711600 0.0 10151401
12:00+18ссз710545 0.0 10152071
15:00+18с610584 0.0 10151937
18:00+16ссз49705 0.0 1016421
21:00+12сз34790 0.0 101743
27 июня, пн
пн2700:00+10сз22810 0.0 101715
03:00+9з22840 0.0 101710
06:00+13з35754 0.0 1017199
09:00+18зюз586668 0.0 1015556
12:00+21з8117049 0.1 10121152
15:00+22зсз7118486 1.7 1010984
18:00+19с6118629 1.5 1011869
21:00+12ссз35885 1.5 101484
28 июня, вт
вт2800:00+8ссв348894 0.0 101561
03:00+6ссз33915 0.0 101658
06:00+8с611775 0.0 1017852
09:00+10с696078 0.0 10171643
12:00+11с686094 0.1 10181643
15:00+11ссв576184 0.1 10181254
18:00+11ссв367023 0.0 1019600
21:00+9зюз37755 0.0 1018126
29 июня, ср
ср2900:00+7зсз38845 0.0 1017139
03:00+5ссз38905 0.0 1019173
06:00+9с497937 0.0 1019474
09:00+13с576837 0.0 10191029
12:00+17ссз576162 0.0 10181492
15:00+18сз5863100 0.0 10171836
18:00+16ссз36735 0.0 1017248
21:00+11сз37875 0.0 1017108